When you browse on this site, cookies collect data to enhance your experience and personalize the content and advertising you see.
Visit our Privacy Policy to learn more. By continuing to use the site, you agree to this use of cookies and data.
  • In Latvia
  • List of Countries
  • For 7 days
  • Water Temperature
  • Satellite Maps
  • Weather Map
  • Weather Widgets
  • user-avatar
    Login

    Hourly Weather Klagenfurt

    Today, 20 May, Monday

    Time Temperature Precipitation Wind Pressure Humidity
    00:00 +8°C° 0.2 mm 1 mps 680 mmHg 96%
    01:00 +8°C° 0 mm 1 mps 680 mmHg 96%
    02:00 +8°C° 0.2 mm 1 mps 680 mmHg 96%
    03:00 +8°C° 0.2 mm 1 mps 680 mmHg 96%
    04:00 +7°C° 0.2 mm 1 mps 680 mmHg 96%
    05:00 +8°C° 0.3 mm 1 mps 680 mmHg 94%
    06:00 +8°C° 0.3 mm 0 mps 680 mmHg 91%
    07:00 +11°C° 0 mm 1 mps 680 mmHg 90%
    08:00 +11°C° 0.5 mm 1 mps 680 mmHg 88%
    09:00 +12°C° 0.5 mm 1 mps 680 mmHg 86%
    10:00 +13°C° 0.5 mm 2 mps 681 mmHg 84%
    11:00 +13°C° 0.6 mm 2 mps 681 mmHg 84%
    12:00 +13°C° 0.6 mm 2 mps 681 mmHg 85%
    13:00 +12°C° 0.6 mm 3 mps 681 mmHg 86%
    14:00 +11°C° 0.4 mm 3 mps 681 mmHg 85%
    15:00 +11°C° 0.4 mm 3 mps 681 mmHg 85%
    16:00 +12°C° 0.4 mm 2 mps 681 mmHg 84%
    17:00 +10°C° 0.2 mm 2 mps 681 mmHg 87%
    18:00 +10°C° 0.2 mm 2 mps 681 mmHg 89%
    19:00 +9°C° 0.2 mm 2 mps 681 mmHg 92%
    20:00 +9°C° 0.2 mm 2 mps 681 mmHg 93%
    21:00 +9°C° 0.2 mm 1 mps 681 mmHg 95%
    22:00 +9°C° 0.2 mm 1 mps 681 mmHg 96%
    23:00 +9°C° 0.3 mm 1 mps 682 mmHg 96%

    Tomorrow, 21 May, Tuesday

    Time Temperature Precipitation Wind Pressure Humidity
    00:00 +9°C° 0.3 mm 1 mps 682 mmHg 97%
    01:00 +9°C° 0.3 mm 1 mps 682 mmHg 97%
    02:00 +9°C° 0.8 mm 1 mps 682 mmHg 97%
    03:00 +9°C° 0.8 mm 1 mps 682 mmHg 97%
    04:00 +9°C° 0.8 mm 1 mps 682 mmHg 97%
    05:00 +9°C° 0.6 mm 1 mps 682 mmHg 95%
    06:00 +10°C° 0.6 mm 1 mps 682 mmHg 94%
    07:00 +10°C° 0.6 mm 1 mps 683 mmHg 93%
    08:00 +11°C° 0.1 mm 1 mps 683 mmHg 89%
    09:00 +12°C° 0.1 mm 1 mps 684 mmHg 85%
    10:00 +13°C° 0.1 mm 1 mps 684 mmHg 82%
    11:00 +13°C° 0.3 mm 2 mps 685 mmHg 79%
    12:00 +14°C° 0.3 mm 2 mps 685 mmHg 77%
    13:00 +15°C° 0.3 mm 2 mps 685 mmHg 75%
    14:00 +14°C° 0.4 mm 2 mps 685 mmHg 78%
    15:00 +14°C° 0.4 mm 2 mps 685 mmHg 81%
    16:00 +13°C° 0.4 mm 2 mps 685 mmHg 84%
    17:00 +13°C° 0.2 mm 2 mps 685 mmHg 87%
    18:00 +12°C° 0.2 mm 1 mps 686 mmHg 90%
    19:00 +11°C° 0.2 mm 1 mps 686 mmHg 93%
    20:00 +11°C° 0.1 mm 1 mps 686 mmHg 95%
    21:00 +10°C° 0.1 mm 1 mps 686 mmHg 96%
    22:00 +10°C° 0.1 mm 1 mps 687 mmHg 97%
    23:00 +10°C° 0.1 mm 1 mps 687 mmHg 97%

    Day after tomorrow, 22 May, Wednesday

    Time Temperature Precipitation Wind Pressure Humidity
    00:00 +10°C° 0.1 mm 1 mps 687 mmHg 97%
    01:00 +10°C° 0.1 mm 1 mps 687 mmHg 96%
    02:00 +10°C° 0.1 mm 1 mps 687 mmHg 96%
    03:00 +10°C° 0.1 mm 1 mps 687 mmHg 96%
    04:00 +10°C° 0.1 mm 1 mps 687 mmHg 96%
    05:00 +11°C° 0 mm 1 mps 688 mmHg 94%
    06:00 +12°C° 0 mm 1 mps 688 mmHg 91%
    07:00 +12°C° 0 mm 1 mps 688 mmHg 88%
    08:00 +14°C° 0.1 mm 1 mps 689 mmHg 82%
    09:00 +15°C° 0.1 mm 1 mps 690 mmHg 76%
    10:00 +18°C° 0.1 mm 1 mps 690 mmHg 70%
    11:00 +18°C° 0.7 mm 1 mps 690 mmHg 71%
    12:00 +17°C° 0.7 mm 2 mps 690 mmHg 71%
    13:00 +17°C° 0.7 mm 2 mps 690 mmHg 72%
    14:00 +17°C° 0.6 mm 2 mps 690 mmHg 72%
    15:00 +18°C° 0.6 mm 1 mps 690 mmHg 72%
    16:00 +18°C° 0.6 mm 1 mps 690 mmHg 72%
    17:00 +16°C° 0.8 mm 1 mps 690 mmHg 77%
    18:00 +15°C° 0.8 mm 1 mps 690 mmHg 82%
    19:00 +13°C° 0.8 mm 0 mps 690 mmHg 87%
    20:00 +12°C° 0.3 mm 0 mps 690 mmHg 89%
    21:00 +10°C° 0.3 mm 0 mps 691 mmHg 90%
    22:00 +10°C° 0.3 mm 1 mps 691 mmHg 92%
    23:00 +10°C° 0.1 mm 1 mps 691 mmHg 93%

    23 May, Thursday

    Time Temperature Precipitation Wind Pressure Humidity
    00:00 +9°C° 0.1 mm 1 mps 691 mmHg 93%
    01:00 +9°C° 0.1 mm 1 mps 691 mmHg 94%
    02:00 +8°C° 0 mm 1 mps 691 mmHg 94%
    03:00 +8°C° 0 mm 1 mps 691 mmHg 93%
    04:00 +8°C° 0 mm 1 mps 690 mmHg 93%
    05:00 +9°C° 0 mm 1 mps 691 mmHg 88%
    06:00 +11°C° 0 mm 1 mps 691 mmHg 84%
    07:00 +12°C° 0 mm 1 mps 691 mmHg 79%
    08:00 +15°C° 0 mm 1 mps 692 mmHg 70%
    09:00 +18°C° 0 mm 1 mps 692 mmHg 60%
    10:00 +20°C° 0 mm 1 mps 693 mmHg 50%
    11:00 +21°C° 0.1 mm 1 mps 692 mmHg 49%
    12:00 +22°C° 0.1 mm 1 mps 692 mmHg 48%
    13:00 +22°C° 0.1 mm 1 mps 692 mmHg 47%
    14:00 +22°C° 0.2 mm 1 mps 692 mmHg 49%
    15:00 +22°C° 0.2 mm 1 mps 691 mmHg 50%
    16:00 +21°C° 0.2 mm 1 mps 691 mmHg 51%
    17:00 +19°C° 0.2 mm 1 mps 690 mmHg 61%
    18:00 +16°C° 0.2 mm 1 mps 690 mmHg 70%
    19:00 +14°C° 0.2 mm 1 mps 690 mmHg 80%
    20:00 +12°C° 0 mm 0 mps 690 mmHg 84%
    21:00 +10°C° 0 mm 0 mps 690 mmHg 87%
    22:00 +9°C° 0 mm 0 mps 690 mmHg 91%
    23:00 +9°C° 0 mm 0 mps 690 mmHg 92%

    24 May, Friday

    Time Temperature Precipitation Wind Pressure Humidity
    00:00 +8°C° 0 mm 0 mps 690 mmHg 93%
    01:00 +8°C° 0 mm 0 mps 689 mmHg 94%
    02:00 +8°C° 0 mm 0 mps 689 mmHg 95%
    03:00 +7°C° 0 mm 0 mps 689 mmHg 95%
    04:00 +7°C° 0 mm 0 mps 689 mmHg 95%
    05:00 +9°C° 0 mm 0 mps 689 mmHg 91%
    06:00 +11°C° 0 mm 0 mps 689 mmHg 86%
    07:00 +12°C° 0 mm 0 mps 689 mmHg 81%
    08:00 +14°C° 0 mm 0 mps 689 mmHg 73%
    09:00 +18°C° 0 mm 1 mps 689 mmHg 65%
    10:00 +20°C° 0 mm 1 mps 690 mmHg 56%
    11:00 +21°C° 0.1 mm 1 mps 689 mmHg 55%
    12:00 +21°C° 0.1 mm 1 mps 689 mmHg 53%
    13:00 +21°C° 0.1 mm 1 mps 688 mmHg 52%
    14:00 +21°C° 0.3 mm 1 mps 687 mmHg 55%
    15:00 +20°C° 0.3 mm 2 mps 687 mmHg 58%
    16:00 +19°C° 0.3 mm 2 mps 686 mmHg 61%
    17:00 +19°C° 0.4 mm 1 mps 686 mmHg 70%
    18:00 +16°C° 0.4 mm 1 mps 685 mmHg 79%
    19:00 +15°C° 0.4 mm 1 mps 685 mmHg 88%
    20:00 +14°C° 0.1 mm 1 mps 685 mmHg 90%
    21:00 +13°C° 0.1 mm 1 mps 684 mmHg 93%
    22:00 +12°C° 0.1 mm 1 mps 684 mmHg 95%
    23:00 +11°C° 0.1 mm 0 mps 684 mmHg 95%

    25 May, Saturday

    Time Temperature Precipitation Wind Pressure Humidity
    00:00 +10°C° 0.1 mm 0 mps 684 mmHg 95%
    01:00 +10°C° 0.1 mm 0 mps 683 mmHg 96%
    02:00 +10°C° 0.1 mm 0 mps 683 mmHg 96%
    03:00 +10°C° 0.1 mm 0 mps 683 mmHg 96%
    04:00 +9°C° 0.1 mm 0 mps 683 mmHg 96%
    05:00 +10°C° 0.3 mm 0 mps 684 mmHg 94%
    06:00 +11°C° 0.3 mm 0 mps 684 mmHg 93%
    07:00 +12°C° 0.3 mm 1 mps 684 mmHg 91%
    08:00 +14°C° 0.2 mm 1 mps 685 mmHg 84%
    09:00 +15°C° 0.2 mm 1 mps 685 mmHg 76%
    10:00 +18°C° 0.2 mm 1 mps 686 mmHg 69%
    11:00 +18°C° 0.8 mm 1 mps 686 mmHg 70%
    12:00 +18°C° 0.8 mm 1 mps 686 mmHg 71%
    13:00 +19°C° 0.8 mm 1 mps 686 mmHg 72%
    14:00 +16°C° 1.6 mm 1 mps 685 mmHg 77%
    15:00 +15°C° 1.6 mm 1 mps 685 mmHg 83%
    16:00 +13°C° 1.6 mm 0 mps 685 mmHg 88%
    17:00 +13°C° 1 mm 0 mps 685 mmHg 90%
    18:00 +12°C° 1 mm 0 mps 685 mmHg 92%
    19:00 +11°C° 1 mm 0 mps 686 mmHg 94%
    20:00 +12°C° 0.5 mm 1 mps 686 mmHg 95%
    21:00 +11°C° 0.5 mm 1 mps 686 mmHg 95%
    22:00 +11°C° 0.5 mm 1 mps 687 mmHg 96%
    23:00 +11°C° 0.3 mm 1 mps 687 mmHg 96%
    Show more